DateTime,DeltaTime,Roll,TargetAngle,Position,Power
2022-06-03 11:00:10.976,0,-0.47,-5.98,-3,6.05
2022-06-03 11:00:11.091,0.114996358752251,-0.14,-2.39,-3,-6.03
2022-06-03 11:00:11.205,0.228996947407722,-0.13,-3.78,2,5.61
2022-06-03 11:00:11.320,0.343993306159973,-0.03,-2.97,7,24.8
2022-06-03 11:00:11.434,0.457993894815445,0,-3.25,10,46.16
2022-06-03 11:00:11.549,0.572990253567696,0.32,-0.77,10,40.42
2022-06-03 11:00:11.659,0.682997703552246,-0.31,-7.23,8,73.08
2022-06-03 11:00:11.774,0.797994062304497,-0.07,-2.5,5,29.95
2022-06-03 11:00:11.889,0.912990421056747,-0.55,-7.46,0,49.53
2022-06-03 11:00:12.004,1.0279968380928,-0.35,-3.75,-2,2.43
2022-06-03 11:00:12.119,1.14299319684505,-0.43,-5.3,-2,11.94
2022-06-03 11:00:12.233,1.25699378550053,-0.28,-3.68,1,4.73
2022-06-03 11:00:12.348,1.37199014425278,0.0800000000000001,-1.49,5,11.07
2022-06-03 11:00:12.463,1.48699656128883,0.48,0.21,10,21.74
2022-06-03 11:00:12.577,1.60099714994431,0.14,-4.31,10,66.75
2022-06-03 11:00:12.692,1.71599350869656,0.14,-2.84,10,45.46
2022-06-03 11:00:12.806,1.82999409735203,-0.25,-5.96,7,62.99
2022-06-03 11:00:12.922,1.94599628448486,-0.02,-2.35,1,25.86
2022-06-03 11:00:13.036,2.05999687314034,-0.12,-4.2,-3,14.62
2022-06-03 11:00:13.151,2.17499323189259,-0.29,-5.16,-3,5.3
2022-06-03 11:00:13.265,2.28899382054806,0.09,-1.31,0,-9.74
2022-06-03 11:00:13.376,2.39999704062939,0.51,0.4,4,1.57
2022-06-03 11:00:13.490,2.51399762928486,0.34,-2.79,8,35.86
2022-06-03 11:00:13.605,2.62899398803711,0.24,-2.94,12,47.77
2022-06-03 11:00:13.720,2.74399034678936,0.36,-1.43,9,52.86
2022-06-03 11:00:13.834,2.85799093544483,-0.0399999999999999,-5.26,7,53.71
2022-06-03 11:00:13.949,2.97299735248089,0.19,-1.6,3,24.31
2022-06-03 11:00:14.064,3.08799371123314,-0.1,-4.99,-2,29.47
2022-06-03 11:00:14.179,3.20299006998539,0.09,-2.18,-1,-8.07
2022-06-03 11:00:14.293,3.31699065864086,0.31,-1.18,0,2.18
2022-06-03 11:00:14.408,3.43199707567692,0.55,-0.29,3,2.77
2022-06-03 11:00:14.522,3.54599766433239,0.18,-4.24,7,37.44
2022-06-03 11:00:14.636,3.65999825298786,-0.16,-5.41,10,54.83
2022-06-03 11:00:14.751,3.77499461174011,0.29,-0.27,10,35.08
2022-06-03 11:00:14.867,3.89099679887295,-0.3,-7.02,8,72.61
2022-06-03 11:00:14.981,4.00499738752842,-0.12,-3,6,32.73
2022-06-03 11:00:15.092,4.11599054932594,-0.26,-4.89,0,41.07
2022-06-03 11:00:15.206,4.22999113798141,-0.5,-6.24,-2,18.92
2022-06-03 11:00:15.321,4.34499755501747,-0.09,-1.88,-1,-6.2
2022-06-03 11:00:15.436,4.45999391376972,-0.08,-3.55,3,15.47
2022-06-03 11:00:15.551,4.57499027252197,0.09,-2.28,6,25.84
2022-06-03 11:00:15.665,4.68899086117744,0.24,-1.75,9,35.14
2022-06-03 11:00:15.780,4.8039972782135,0.49,-0.45,12,41.1
2022-06-03 11:00:15.895,4.91899363696575,0.11,-4.6,10,75.51
2022-06-03 11:00:16.009,5.03299422562122,-0.13,-4.82,6,52.39
2022-06-03 11:00:16.123,5.1469948142767,-0.4,-6,0,40.59
2022-06-03 11:00:16.238,5.26199117302895,-0.13,-2.62,-3,-1.52
2022-06-03 11:00:16.354,5.37799336016178,-0.38,-5.8,-2,11.9
2022-06-03 11:00:16.468,5.49199394881725,-0.0599999999999999,-2.2,0,-1.07
2022-06-03 11:00:16.583,5.6069903075695,-0.28,-5.3,5,27.89
2022-06-03 11:00:16.697,5.72099089622498,-0.33,-4.75,9,43.92
2022-06-03 11:00:16.812,5.83599731326103,-0.02,-2.03,10,45.39
2022-06-03 11:00:16.923,5.94699047505856,-0.41,-6.6,10,68.6
2022-06-03 11:00:17.037,6.06099106371403,-0.71,-7.21,7,64.34
2022-06-03 11:00:17.152,6.17599748075008,-0.5,-4.28,2,33.86
2022-06-03 11:00:17.267,6.29099383950233,-0.63,-6.25,-3,27.53
2022-06-03 11:00:17.381,6.40499442815781,-0.9,-7.8,-3,14.99
2022-06-03 11:00:17.496,6.51999078691006,-0.56,-3.92,0,0.53
2022-06-03 11:00:17.610,6.63399137556553,-0.34,-3.67,3,19.46
2022-06-03 11:00:17.725,6.74899779260159,-0.17,-3.19,8,28.78
2022-06-03 11:00:17.841,6.86499997973442,-0.16,-3.9,11,54.65
2022-06-03 11:00:17.955,6.97899051010609,0.02,-2.49,10,51.86
2022-06-03 11:00:18.069,7.09299109876156,-0.92,-10.87,8,86.72
2022-06-03 11:00:18.184,7.20799751579762,-0.45,-2.95,3,27.42
2022-06-03 11:00:18.298,7.32199810445309,-0.27,-3.5,-2,19.18
2022-06-03 11:00:18.413,7.43699446320534,-0.3,-4.55,-2,5.82
2022-06-03 11:00:18.528,7.55199082195759,-0.19,-3.56,-3,6.29
2022-06-03 11:00:18.643,7.66699723899364,-0.3,-4.9,0,9.42
2022-06-03 11:00:18.754,7.77799040079117,-0.44,-5.62,7,27.78
2022-06-03 11:00:18.868,7.89199098944664,0,-1.42,10,37.44
2022-06-03 11:00:18.983,8.0069974064827,0,-3.29,10,58.85
2022-06-03 11:00:19.097,8.12099799513817,-0.3,-5.76,9,61.42
2022-06-03 11:00:19.212,8.23599435389042,-0.49,-5.97,5,54.23
2022-06-03 11:00:19.326,8.34999494254589,-0.56,-5.71,0,33.92
2022-06-03 11:00:19.441,8.46499130129814,-0.5,-4.94,-3,11.65
2022-06-03 11:00:19.556,8.5799977183342,-0.56,-5.63,-2,8.13
2022-06-03 11:00:19.671,8.69499407708645,-0.35,-3.72,0,6.8
2022-06-03 11:00:19.785,8.80899466574192,-0.18,-3.29,5,16.03
2022-06-03 11:00:19.901,8.92499685287476,-0.31,-5,8,47.85
2022-06-03 11:00:20.015,9.03899744153023,0.21,-0.28,10,28.3
2022-06-03 11:00:20.130,9.15399380028248,-0.26,-6.38,10,71.87
2022-06-03 11:00:20.244,9.26799438893795,-0.48,-6.08,7,58.95
2022-06-03 11:00:20.359,9.3829907476902,-0.75,-7.23,2,50.12
2022-06-03 11:00:20.474,9.49799716472626,-0.41,-3.36,-2,8.13
2022-06-03 11:00:20.584,9.607994556427,-0.52,-5.77,-3,12.34
2022-06-03 11:00:20.698,9.72199514508247,-0.42,-4.42,0,2.99
2022-06-03 11:00:20.813,9.83699150383472,-0.54,-5.84,3,28.33
2022-06-03 11:00:20.927,9.9509920924902,-0.03,-1.22,8,14.97
2022-06-03 11:00:21.043,10.066994279623,0.1,-2.42,10,48.47
2022-06-03 11:00:21.158,10.1819906383753,0.1,-2.96,9,51.16
2022-06-03 11:00:21.272,10.2959912270308,-0.56,-8.25,8,69.32
2022-06-03 11:00:21.387,10.4109976440668,-0.29,-3.26,3,33.68
2022-06-03 11:00:21.502,10.5259940028191,-0.42,-5.44,-2,28.5
2022-06-03 11:00:21.616,10.6399945914745,-0.26,-3.57,-3,-1.43
2022-06-03 11:00:21.731,10.7549909502268,-0.41,-5.48,-2,12.31
2022-06-03 11:00:21.846,10.8699973672628,-0.32,-4.14,2,9.65
2022-06-03 11:00:21.961,10.9849937260151,-0.12,-2.92,6,24.17
2022-06-03 11:00:22.075,11.0989943146706,0.0800000000000001,-2.13,10,37.03
2022-06-03 11:00:22.190,11.2139906734228,0.21,-1.98,10,52.85
2022-06-03 11:00:22.300,11.3239981234074,-0.0399999999999999,-4.56,9,57.14
2022-06-03 11:00:22.415,11.4389944821596,-0.0499999999999999,-3.56,6,43.75
2022-06-03 11:00:22.529,11.5529950708151,0.02,-2.95,0,29.42
2022-06-03 11:00:22.644,11.6679914295673,0.1,-2.6,-3,3.23
2022-06-03 11:00:22.759,11.7829978466034,0.32,-1.21,-2,-10.18
2022-06-03 11:00:22.874,11.8979942053556,0,-4.68,0,17.81
2022-06-03 11:00:22.988,12.0119947940111,0.48,0.56,5,-4.04
2022-06-03 11:00:23.103,12.1269911527634,0.48,-1.61,10,36.05
2022-06-03 11:00:23.218,12.2419975697994,0.65,-0.14,10,44.9
2022-06-03 11:00:23.333,12.3569939285517,0.09,-5.48,10,67.93
2022-06-03 11:00:23.449,12.4729961156845,0.28,-1.48,7,37.12
2022-06-03 11:00:23.563,12.58699670434,-0.43,-8.02,2,61.16
2022-06-03 11:00:23.676,12.6999914646149,-0.02,-1.62,-2,-1.58
2022-06-03 11:00:23.792,12.8159936517477,-0.32,-5.81,-2,14.64
2022-06-03 11:00:23.906,12.9299942404032,-0.25,-3.97,-1,5.52
2022-06-03 11:00:24.021,13.0449905991554,0.03,-1.97,2,3.11
2022-06-03 11:00:24.131,13.15499804914,0.6,1.39,7,2.76
2022-06-03 11:00:24.246,13.2699944078922,0.77,0.27,11,33.86
2022-06-03 11:00:24.361,13.3849907666445,0.57,-2.07,10,58.19
2022-06-03 11:00:24.475,13.4989913552999,0.53,-1.57,8,40.76
2022-06-03 11:00:24.590,13.613997772336,0.26,-3.54,3,43.59
2022-06-03 11:00:24.704,13.7279983609915,0.29,-2.1,-3,12.48
2022-06-03 11:00:24.819,13.8429947197437,0.21,-2.95,-2,-4.38
2022-06-03 11:00:24.935,13.9589969068766,-0.08,-4.84,0,16.86
2022-06-03 11:00:25.049,14.072997495532,0.51,1.09,2,-6.37
2022-06-03 11:00:25.163,14.1869980841875,0.6,-0.71,7,17.72
2022-06-03 11:00:25.278,14.3019944429398,0.68,-0.47,11,36.81
2022-06-03 11:00:25.392,14.4159950315952,0.26,-4.24,10,70.1
2022-06-03 11:00:25.507,14.5309913903475,0.55,-0.05,9,30.28
2022-06-03 11:00:25.623,14.6469935774803,-0.19,-7.23,5,68.94
2022-06-03 11:00:25.737,14.7609941661358,0.29,-0.17,0,4.59
2022-06-03 11:00:25.852,14.875990524888,0.1,-3.76,-3,12.51
2022-06-03 11:00:25.962,14.9859979748726,0.13,-2.74,-3,-5.42
2022-06-03 11:00:26.076,15.0999985635281,0.56,0.65,1,-17.15
2022-06-03 11:00:26.191,15.2149949222803,0.54,-1.47,6,17.59
2022-06-03 11:00:26.306,15.3299912810326,0.0800000000000001,-5,9,52.49
2022-06-03 11:00:26.422,15.4459934681654,0.18,-2.23,11,41.77
2022-06-03 11:00:26.535,15.5589982867241,0.01,-4.04,10,61.52
2022-06-03 11:00:26.651,15.6749904155731,-0.41,-6.69,7,63.79
2022-06-03 11:00:26.764,15.7879952341318,-0.15,-2.75,1,26.88
2022-06-03 11:00:26.879,15.9029915928841,-0.26,-4.77,-3,16.99
2022-06-03 11:00:26.994,16.0179980099201,-0.46,-5.9,-3,8.34
2022-06-03 11:00:27.109,16.1329943686724,-0.07,-1.85,-1,-7.85
2022-06-03 11:00:27.224,16.2479907274246,0.03,-2.83,4,12.25
2022-06-03 11:00:27.338,16.3619913160801,0.0600000000000001,-2.94,10,34.08
2022-06-03 11:00:27.452,16.4759919047356,-0.0499999999999999,-4.03,10,63.48
2022-06-03 11:00:27.568,16.5919940918684,0.24,-1.15,11,37.4
2022-06-03 11:00:27.683,16.7069904506207,-0.65,-9.64,7,89.67
2022-06-03 11:00:27.792,16.8159920722246,-0.0599999999999999,-0.97,3,12.79
2022-06-03 11:00:27.907,16.9309984892607,0.24,-1.14,-2,10.98
2022-06-03 11:00:28.022,17.0459948480129,0.0600000000000001,-3.9,-3,5.16
2022-06-03 11:00:28.137,17.1609912067652,0.43,-0.16,136,-15.43
2022-06-03 11:00:28.251,17.2749917954206,0.19,-3.69,3,90
2022-06-03 11:00:28.366,17.3899982124567,0.14,-3,7,-90
2022-06-03 11:00:28.480,17.5039988011122,0.6,0.87,11,22.78
2022-06-03 11:00:28.596,17.6199909299612,0.27,-3.76,11,66.35
2022-06-03 11:00:28.710,17.7339915186167,-0.02,-4.65,7,58.96
2022-06-03 11:00:28.825,17.8489979356527,0.12,-2.26,4,25.81
2022-06-03 11:00:28.939,17.9629985243082,-0.09,-4.6,-2,31.73
2022-06-03 11:00:29.054,18.0779948830605,0.0700000000000001,-2.39,-3,-7.72
2022-06-03 11:00:29.169,18.1929912418127,0.16,-2.33,-3,-2.16
2022-06-03 11:00:29.283,18.3069918304682,0.39,-0.87,2,-8.16
2022-06-03 11:00:29.398,18.4219982475042,0.75,1.03,6,9.07
2022-06-03 11:00:29.509,18.5329914093018,0.85,0.24,10,29.03
2022-06-03 11:00:29.623,18.6469919979572,0.67,-1.64,11,52.71
2022-06-03 11:00:29.738,18.7619984149933,0.27,-4.11,9,60.35
2022-06-03 11:00:29.852,18.8759990036488,0.39,-1.31,5,31.75
2022-06-03 11:00:29.967,18.990995362401,0.47,-1.24,0,18.65
2022-06-03 11:00:30.082,19.1059917211533,0.01,-5.33,-3,20
2022-06-03 11:00:30.197,19.2209981381893,0.2,-1.77,-3,-11.17
2022-06-03 11:00:30.312,19.3359944969416,0.19,-2.65,0,1.75
2022-06-03 11:00:30.426,19.449995085597,1.04,4.26,5,-18.99
2022-06-03 11:00:30.541,19.5649914443493,1.1,1.02,9,26.99
2022-06-03 11:00:30.655,19.6789920330048,0.85,-1.29,12,48.09
2022-06-03 11:00:30.769,19.7929926216602,1,1,10,41.54
2022-06-03 11:00:30.885,19.9089948087931,0.94,-0.12,7,37.22
2022-06-03 11:00:30.999,20.0229953974485,0.65,-2.16,2,34.5
2022-06-03 11:00:31.114,20.1379917562008,0.69,-0.59,-3,3.72
2022-06-03 11:00:31.229,20.2529981732368,0.64,-1.16,-2,-9.62
2022-06-03 11:00:31.339,20.3629955649376,0.8,0.3,0,-6.26
2022-06-03 11:00:31.454,20.4779919236898,0.98,1.08,3,0.25
2022-06-03 11:00:31.569,20.5929983407259,0.85,-0.73,8,22.63
2022-06-03 11:00:31.683,20.7069989293814,0.49,-3.13,11,53.64
2022-06-03 11:00:31.798,20.8219952881336,1.12,3.61,11,22.37
2022-06-03 11:00:31.912,20.9359958767891,0.29,-5.92,8,75.66
2022-06-03 11:00:32.027,21.0509922355413,0.48,-0.69,3,21.3
2022-06-03 11:00:32.143,21.1669944226742,0.17,-4.04,-2,24.61
2022-06-03 11:00:32.257,21.2809950113297,0.39,-0.94,-5,-13.08
2022-06-03 11:00:32.372,21.3959913700819,0.47,-1.27,-3,-15.94
2022-06-03 11:00:32.486,21.5099919587374,0.68,0.13,2,-9.76
2022-06-03 11:00:32.601,21.6249983757734,0.2,-4.73,6,38.48
2022-06-03 11:00:32.716,21.7399947345257,0.48,-0.33,11,24.16
2022-06-03 11:00:32.830,21.8539953231812,0.52,-1.21,12,54.7
2022-06-03 11:00:32.945,21.9689916819334,0.17,-4.23,10,65.18
2022-06-03 11:00:33.059,22.0829922705889,-0.15,-5.31,6,55.32
2022-06-03 11:00:33.170,22.1939954906702,-0.36,-5.55,1,37.7
2022-06-03 11:00:33.284,22.3079960793257,-0.12,-2.7,-4,4.42
2022-06-03 11:00:33.399,22.4229924380779,-0.45,-6.45,-3,8.82
2022-06-03 11:00:33.514,22.537998855114,-0.0399999999999999,-1.71,0,-8.04
2022-06-03 11:00:33.629,22.6529952138662,0.24,-1.19,4,9.13
2022-06-03 11:00:33.744,22.7679915726185,0.35,-1.6,10,28.07
2022-06-03 11:00:33.858,22.881992161274,0.25,-2.85,12,59.07
2022-06-03 11:00:33.973,22.99699857831,-0.66,-9.73,11,90
2022-06-03 11:00:34.088,23.1119949370623,-0.66,-5.75,8,55.3
2022-06-03 11:00:34.203,23.2269912958145,-0.87,-7.45,2,55.33
2022-06-03 11:00:34.317,23.34099188447,-0.93,-7.03,-4,24.92
2022-06-03 11:00:34.432,23.455998301506,-1.3,-9.8,-4,18
2022-06-03 11:00:34.547,23.5709946602583,-1.51,-9.79,-2,22.72
2022-06-03 11:00:34.661,23.6849952489138,-1.18,-6.25,2,15.57
2022-06-03 11:00:34.776,23.799991607666,-0.68,-3.69,8,25.14
2022-06-03 11:00:34.886,23.9099990576506,-1.03,-8.69,12,78.84
2022-06-03 11:00:35.001,24.0249954164028,-1.08,-7.55,12,75.92
2022-06-03 11:00:35.115,24.1389960050583,-1.2,-8.28,9,75.84
2022-06-03 11:00:35.231,24.2549981921911,-1.38,-9.23,4,64.58
2022-06-03 11:00:35.345,24.3689987808466,-1.02,-5.52,-1,23.71
2022-06-03 11:00:35.459,24.4829993695021,-1.34,-9.71,-5,31.96
2022-06-03 11:00:35.574,24.5979957282543,-1.06,-6.03,-3,-4.59
2022-06-03 11:00:35.689,24.7129920870066,-0.83,-5.36,2,12.22
2022-06-03 11:00:35.804,24.8279985040426,-0.4,-2.95,5,23.64
2022-06-03 11:00:35.918,24.9419990926981,-0.7,-7.21,10,57.01
2022-06-03 11:00:36.033,25.0569954514503,-0.9,-7.56,12,71.83
2022-06-03 11:00:36.148,25.1719918102026,-0.65,-4.67,12,60.38
2022-06-03 11:00:36.262,25.2859923988581,-1.02,-8.68,7,81.58
2022-06-03 11:00:36.377,25.4009988158941,-0.75,-4.97,2,32.75
2022-06-03 11:00:36.492,25.5159951746464,-0.91,-7.42,-3,32.53
2022-06-03 11:00:36.606,25.6299957633018,-1.21,-9.13,-3,20.28
2022-06-03 11:00:36.721,25.7449921220541,-1,-6.07,-2,9.84
2022-06-03 11:00:36.831,25.8549995720387,-0.64,-4.12,3,9.38
2022-06-03 11:00:36.946,25.9699959307909,-0.74,-6.53,8,47.91
2022-06-03 11:00:37.061,26.0849922895432,-0.77,-6.29,11,58.98
2022-06-03 11:00:37.176,26.1999987065792,-0.78,-6.29,11,67.75
2022-06-03 11:00:37.291,26.3149950653315,-0.85,-6.76,9,66.21
2022-06-03 11:00:37.406,26.4299914240837,-1.4,-10.95,4,76.54
2022-06-03 11:00:37.521,26.5449978411198,-1.28,-7.51,0,31.44
2022-06-03 11:00:37.634,26.6579926013947,-1.31,-8.28,-3,27.36
2022-06-03 11:00:37.749,26.7729990184307,-1.35,-8.51,-2,18.51
2022-06-03 11:00:37.864,26.887995377183,-0.85,-4.32,0,6.72
2022-06-03 11:00:37.979,27.0029917359352,-0.72,-5.45,5,26.74
2022-06-03 11:00:38.093,27.1169923245907,-1.27,-10.44,9,73.11
2022-06-03 11:00:38.208,27.2319987416267,-1.06,-6.35,10,56.57
2022-06-03 11:00:38.322,27.3459993302822,-1.05,-7.17,9,65.77
2022-06-03 11:00:38.438,27.4619914591312,-1.01,-6.85,6,56.76
2022-06-03 11:00:38.552,27.5759920477867,-1.23,-8.86,1,53.56
2022-06-03 11:00:38.662,27.6859994977713,-1.2,-7.68,-2,23.92
2022-06-03 11:00:38.778,27.8019916266203,-1.24,-8.08,-1,19.81
2022-06-03 11:00:38.892,27.9159922152758,-1.04,-6.33,1,20.05
2022-06-03 11:00:39.006,28.0299928039312,-0.71,-4.49,3,22.33
2022-06-03 11:00:39.121,28.1449992209673,-0.31,-2.71,6,23.72
2022-06-03 11:00:39.235,28.2589998096228,-0.57,-6.56,10,58.19
2022-06-03 11:00:39.351,28.3749919384718,-1.38,-11.96,9,90
2022-06-03 11:00:39.465,28.4889925271273,-1.32,-7.94,8,55.96
2022-06-03 11:00:39.580,28.6039989441633,-1.67,-11.03,5,72.97
2022-06-03 11:00:39.695,28.7189953029156,-1.38,-7.18,0,36.01
2022-06-03 11:00:39.809,28.832995891571,-1.48,-9.28,0,31.54
2022-06-03 11:00:39.924,28.9479922503233,-1.31,-7.39,0,26.75
2022-06-03 11:00:40.039,29.0629986673594,-1.51,-9.84,1,42.18
2022-06-03 11:00:40.153,29.1769992560148,-1.07,-5.31,5,22.2
2022-06-03 11:00:40.269,29.2929913848639,-0.9,-5.92,8,50.45
2022-06-03 11:00:40.382,29.4059962034225,-0.59,-4.19,9,46.69
2022-06-03 11:00:40.493,29.5169994235039,-0.9,-8.04,8,69.27
2022-06-03 11:00:40.608,29.6319957822561,-1.45,-11.11,6,73.27
2022-06-03 11:00:40.723,29.7469921410084,-1.26,-7.18,2,40.9
2022-06-03 11:00:40.837,29.8609927296638,-1.28,-8.1,1,34.42
2022-06-03 11:00:40.952,29.9759991466999,-1.3,-8.29,0,35.35
2022-06-03 11:00:41.067,30.0909955054522,-1.13,-6.75,0,24.58
2022-06-03 11:00:41.181,30.2049960941076,-0.81,-4.92,2,19.36
2022-06-03 11:00:41.296,30.3199924528599,-1.11,-8.73,6,51.26
2022-06-03 11:00:41.411,30.4349988698959,-0.9,-5.77,8,44.82
